VOI5979 KPHX-MMHO

Flight info

Callsign VOI5979
Flight time 0h 58m
Altitude 35000
Route STRRM1 TUS J92 HMO
Aircraft A320/M-SDE3FGHIRWY/LB1

Departure

Time 2026-04-20 00:25
Airport Phoenix Sky Harbor International Airport (KPHX)

Arrival

Time 2026-04-20 01:23
Airport General Ignacio L. Pesqueira International Airport (MMHO)
Time Latitude Longitude Altitude Speed Heading
2026-04-20 00:01 33.43738 -111.99986 1150 ft 0 kts 89°
2026-04-20 00:14 33.43738 -111.99987 1149 ft 1 kts 89°
2026-04-20 00:15 33.43737 -112.00005 1149 ft 3 kts 73°
2026-04-20 00:15 33.43729 -112.00025 1149 ft 3 kts 37°
2026-04-20 00:15 33.43715 -112.00033 1149 ft 3 kts
2026-04-20 00:17 33.43720 -112.00033 1149 ft 2 kts
2026-04-20 00:17 33.43750 -112.00031 1149 ft 7 kts
2026-04-20 00:17 33.43808 -112.00032 1149 ft 10 kts
2026-04-20 00:18 33.43854 -112.00033 1149 ft 8 kts 353°
2026-04-20 00:18 33.43916 -112.00070 1149 ft 13 kts 338°
2026-04-20 00:18 33.43972 -112.00153 1149 ft 14 kts 277°
2026-04-20 00:18 33.43973 -112.00267 1149 ft 14 kts 269°
2026-04-20 00:19 33.43973 -112.00386 1149 ft 14 kts 271°
2026-04-20 00:19 33.43972 -112.00512 1149 ft 17 kts 272°
2026-04-20 00:19 33.43972 -112.00658 1149 ft 18 kts 270°
2026-04-20 00:19 33.43974 -112.00807 1149 ft 18 kts 271°
2026-04-20 00:20 33.43976 -112.00959 1149 ft 18 kts 271°
2026-04-20 00:20 33.44012 -112.01092 1149 ft 17 kts 337°
2026-04-20 00:20 33.44083 -112.01137 1149 ft 5 kts 281°
2026-04-20 00:20 33.44086 -112.01187 1149 ft 7 kts 271°
2026-04-20 00:21 33.44085 -112.01267 1149 ft 11 kts 270°
2026-04-20 00:21 33.44083 -112.01365 1149 ft 13 kts 268°
2026-04-20 00:21 33.44080 -112.01480 1149 ft 15 kts 268°
2026-04-20 00:21 33.44078 -112.01620 1149 ft 21 kts 269°
2026-04-20 00:22 33.44081 -112.01835 1149 ft 29 kts 271°
2026-04-20 00:22 33.44084 -112.02066 1149 ft 28 kts 270°
2026-04-20 00:22 33.44084 -112.02253 1149 ft 22 kts 270°
2026-04-20 00:22 33.44084 -112.02443 1149 ft 24 kts 269°
2026-04-20 00:23 33.44082 -112.02644 1149 ft 21 kts 269°
2026-04-20 00:23 33.44077 -112.02816 1149 ft 22 kts 265°
2026-04-20 00:23 33.44069 -112.02923 1149 ft 13 kts 265°
2026-04-20 00:23 33.44079 -112.02945 1149 ft 3 kts 58°
2026-04-20 00:24 33.44086 -112.02904 1149 ft 8 kts 84°
2026-04-20 00:24 33.44087 -112.02715 1149 ft 54 kts 90°
2026-04-20 00:24 33.44085 -112.01935 1150 ft 131 kts 90°
2026-04-20 00:24 33.44065 -112.00648 1417 ft 165 kts 98°
2026-04-20 00:25 33.43517 -111.99415 2081 ft 174 kts 137°
2026-04-20 00:25 33.42435 -111.98815 2912 ft 169 kts 170°
2026-04-20 00:25 33.41307 -111.98604 3543 ft 167 kts 171°
2026-04-20 00:25 33.40527 -111.98445 3868 ft 171 kts 170°
2026-04-20 00:26 33.38906 -111.98091 4280 ft 192 kts 171°
2026-04-20 00:26 33.37526 -111.97913 4635 ft 207 kts 177°
2026-04-20 00:26 33.36026 -111.97889 4996 ft 223 kts 180°
2026-04-20 00:26 33.34438 -111.97888 5402 ft 238 kts 180°
2026-04-20 00:27 33.32708 -111.97838 5858 ft 254 kts 180°
2026-04-20 00:27 33.30934 -111.97748 6741 ft 251 kts 182°
2026-04-20 00:27 33.29209 -111.97659 7719 ft 247 kts 182°
2026-04-20 00:27 33.27508 -111.97597 8522 ft 248 kts 183°
2026-04-20 00:28 33.25774 -111.97554 9276 ft 250 kts 183°
2026-04-20 00:28 33.24019 -111.97500 10016 ft 253 kts 183°
2026-04-20 00:28 33.22239 -111.97429 10734 ft 257 kts 182°
2026-04-20 00:28 33.20430 -111.97360 11222 ft 271 kts 183°
2026-04-20 00:29 33.18471 -111.97297 11482 ft 293 kts 182°
2026-04-20 00:29 33.16359 -111.97232 11708 ft 314 kts 182°
2026-04-20 00:29 33.14115 -111.97155 11926 ft 333 kts 182°
2026-04-20 00:29 33.11721 -111.97066 12138 ft 351 kts 181°
2026-04-20 00:30 33.09220 -111.96971 12355 ft 367 kts 181°
2026-04-20 00:30 33.07501 -111.96906 12518 ft 377 kts 181°
2026-04-20 00:30 33.03943 -111.96775 12791 ft 395 kts 181°
2026-04-20 00:30 33.01152 -111.96626 13075 ft 406 kts 178°
2026-04-20 00:31 32.99255 -111.96242 13399 ft 411 kts 169°
2026-04-20 00:31 32.96553 -111.95147 13895 ft 417 kts 161°
2026-04-20 00:31 32.93874 -111.93772 14372 ft 421 kts 158°
2026-04-20 00:31 32.91203 -111.92294 14839 ft 424 kts 157°
2026-04-20 00:32 32.88625 -111.90518 15285 ft 430 kts 147°
2026-04-20 00:32 32.86355 -111.88179 15823 ft 436 kts 137°
2026-04-20 00:32 32.84252 -111.85552 16298 ft 441 kts 134°
2026-04-20 00:32 32.82193 -111.82827 16735 ft 444 kts 134°
2026-04-20 00:33 32.80134 -111.80078 17149 ft 446 kts 134°
2026-04-20 00:33 32.78054 -111.77366 17548 ft 449 kts 135°
2026-04-20 00:33 32.75904 -111.74651 17941 ft 451 kts 136°
2026-04-20 00:33 32.73729 -111.71949 18326 ft 453 kts 136°
2026-04-20 00:34 32.71546 -111.69228 18707 ft 456 kts 135°
2026-04-20 00:34 32.69363 -111.66476 19080 ft 459 kts 135°
2026-04-20 00:34 32.67174 -111.63689 19437 ft 461 kts 135°
2026-04-20 00:34 32.64984 -111.60900 19802 ft 464 kts 135°
2026-04-20 00:35 32.62773 -111.58098 20163 ft 466 kts 135°
2026-04-20 00:35 32.60566 -111.55320 20505 ft 468 kts 135°
2026-04-20 00:35 32.58316 -111.52488 20844 ft 470 kts 135°
2026-04-20 00:35 32.56070 -111.49664 21177 ft 473 kts 135°
2026-04-20 00:36 32.53809 -111.46816 21499 ft 475 kts 135°
2026-04-20 00:36 32.51531 -111.43948 21811 ft 477 kts 135°
2026-04-20 00:36 32.49255 -111.41082 22124 ft 479 kts 135°
2026-04-20 00:36 32.46958 -111.38194 22438 ft 481 kts 135°
2026-04-20 00:37 32.44682 -111.35338 22735 ft 483 kts 135°
2026-04-20 00:37 32.42364 -111.32433 23029 ft 485 kts 135°
2026-04-20 00:37 32.40035 -111.29518 23315 ft 487 kts 135°
2026-04-20 00:37 32.37700 -111.26597 23591 ft 489 kts 135°
2026-04-20 00:38 32.35357 -111.23665 23862 ft 491 kts 135°
2026-04-20 00:38 32.33001 -111.20719 24121 ft 493 kts 135°
2026-04-20 00:38 32.30642 -111.17770 24368 ft 495 kts 135°
2026-04-20 00:38 32.28273 -111.14810 24606 ft 496 kts 135°
2026-04-20 00:39 32.25919 -111.11878 24831 ft 498 kts 135°
2026-04-20 00:39 32.23531 -111.08908 25043 ft 499 kts 135°
2026-04-20 00:39 32.21133 -111.05927 25286 ft 500 kts 135°
2026-04-20 00:39 32.18734 -111.02936 25585 ft 500 kts 135°
2026-04-20 00:40 32.16343 -110.99957 25883 ft 499 kts 135°
2026-04-20 00:40 32.13934 -110.97014 26182 ft 498 kts 138°
2026-04-20 00:40 32.11233 -110.94476 26463 ft 493 kts 149°
2026-04-20 00:40 32.08221 -110.92702 26747 ft 487 kts 162°
2026-04-20 00:41 32.04949 -110.91785 27033 ft 481 kts 176°
2026-04-20 00:41 32.01616 -110.91696 27331 ft 477 kts 185°
2026-04-20 00:41 31.98294 -110.91896 27624 ft 476 kts 186°
2026-04-20 00:41 31.94994 -110.92135 27920 ft 475 kts 186°
2026-04-20 00:42 31.91682 -110.92345 28006 ft 475 kts 185°
2026-04-20 00:42 31.85072 -110.92618 28005 ft 475 kts 185°
2026-04-20 00:43 31.78461 -110.92880 28005 ft 475 kts 185°
2026-04-20 00:43 31.71896 -110.93212 28005 ft 475 kts 185°
2026-04-20 00:44 31.65274 -110.93525 28005 ft 475 kts 185°
2026-04-20 00:44 31.58665 -110.93811 28005 ft 475 kts 185°
2026-04-20 00:45 31.52093 -110.94115 28005 ft 475 kts 185°
2026-04-20 00:45 31.45473 -110.94423 28005 ft 475 kts 185°
2026-04-20 00:46 31.38860 -110.94721 28005 ft 475 kts 185°
2026-04-20 00:46 31.32242 -110.95026 28005 ft 475 kts 185°
2026-04-20 00:47 31.25633 -110.95328 28005 ft 475 kts 185°
2026-04-20 00:47 31.19059 -110.95627 28005 ft 475 kts 185°
2026-04-20 00:48 31.12450 -110.95930 28005 ft 475 kts 185°
2026-04-20 00:48 31.05826 -110.96229 28005 ft 475 kts 185°
2026-04-20 00:49 30.99242 -110.96533 28005 ft 475 kts 185°
2026-04-20 00:49 30.92625 -110.96838 28005 ft 475 kts 185°
2026-04-20 00:50 30.86009 -110.97141 28005 ft 475 kts 185°
2026-04-20 00:50 30.79434 -110.97439 28005 ft 475 kts 185°
2026-04-20 00:51 30.72810 -110.97762 28005 ft 475 kts 185°
2026-04-20 00:51 30.66190 -110.98095 28005 ft 475 kts 185°
2026-04-20 00:52 30.59617 -110.98409 28005 ft 475 kts 185°
2026-04-20 00:52 30.53002 -110.98728 28005 ft 475 kts 185°
2026-04-20 00:53 30.46384 -110.99051 28005 ft 475 kts 185°
2026-04-20 00:53 30.39816 -110.99345 28005 ft 475 kts 185°
2026-04-20 00:54 30.33189 -110.99639 28005 ft 475 kts 185°
2026-04-20 00:54 30.26606 -110.99936 28005 ft 475 kts 185°
2026-04-20 00:55 30.19986 -111.00237 28005 ft 475 kts 185°
2026-04-20 00:55 30.13429 -111.00531 27883 ft 468 kts 185°
2026-04-20 00:55 30.10198 -111.00542 27372 ft 462 kts 180°
2026-04-20 00:56 30.07008 -111.00356 26520 ft 455 kts 179°
2026-04-20 00:56 30.03880 -110.99950 25819 ft 448 kts 172°
2026-04-20 00:56 30.00910 -110.98982 25342 ft 438 kts 162°
2026-04-20 00:56 29.98196 -110.97446 24690 ft 433 kts 150°
2026-04-20 00:57 29.95831 -110.95313 24138 ft 427 kts 137°
2026-04-20 00:57 29.94001 -110.92681 23858 ft 415 kts 123°
2026-04-20 00:57 29.92764 -110.89776 23623 ft 401 kts 109°
2026-04-20 00:57 29.92187 -110.86679 23365 ft 388 kts 97°
2026-04-20 00:58 29.91950 -110.83638 23149 ft 374 kts 92°
2026-04-20 00:58 29.92200 -110.80712 22904 ft 359 kts 72°
2026-04-20 00:58 29.93204 -110.78155 22643 ft 344 kts 52°
2026-04-20 00:58 29.94784 -110.76200 22189 ft 334 kts 32°
2026-04-20 00:59 29.96773 -110.74905 21726 ft 324 kts 16°
2026-04-20 00:59 29.98900 -110.74085 21323 ft 317 kts 12°
2026-04-20 00:59 30.01007 -110.73559 21131 ft 301 kts
2026-04-20 00:59 30.03040 -110.73261 21003 ft 287 kts
2026-04-20 01:00 30.04990 -110.73031 20785 ft 277 kts
2026-04-20 01:00 30.06874 -110.72824 20453 ft 274 kts
2026-04-20 01:00 30.08767 -110.72617 20080 ft 272 kts
2026-04-20 01:00 30.10615 -110.72413 19705 ft 270 kts 360°
2026-04-20 01:01 30.12480 -110.72515 19302 ft 259 kts 337°
2026-04-20 01:01 30.14022 -110.73468 18924 ft 247 kts 312°
2026-04-20 01:01 30.15034 -110.75027 18549 ft 240 kts 292°
2026-04-20 01:01 30.15459 -110.76840 18168 ft 237 kts 273°
2026-04-20 01:02 30.15340 -110.78733 17778 ft 237 kts 260°
2026-04-20 01:02 30.14957 -110.80586 17385 ft 237 kts 258°
2026-04-20 01:02 30.14562 -110.82419 16998 ft 233 kts 259°
2026-04-20 01:02 30.14237 -110.84264 16504 ft 234 kts 262°
2026-04-20 01:03 30.13932 -110.86107 16036 ft 234 kts 260°
2026-04-20 01:03 30.13610 -110.87945 15579 ft 233 kts 262°
2026-04-20 01:03 30.13331 -110.89759 15131 ft 232 kts 262°
2026-04-20 01:03 30.13009 -110.91577 14920 ft 233 kts 258°
2026-04-20 01:04 30.12529 -110.93383 14946 ft 235 kts 257°
2026-04-20 01:04 30.12216 -110.95228 14968 ft 235 kts 260°
2026-04-20 01:04 30.11682 -110.97026 14982 ft 237 kts 249°
2026-04-20 01:04 30.10861 -110.98690 14986 ft 242 kts 236°
2026-04-20 01:05 30.09643 -111.00048 14985 ft 248 kts 215°
2026-04-20 01:05 30.07961 -111.00594 14984 ft 259 kts 183°
2026-04-20 01:05 30.06162 -111.00367 15011 ft 261 kts 174°
2026-04-20 01:05 30.04403 -111.00080 14809 ft 257 kts 178°
2026-04-20 01:06 30.02624 -110.99951 14354 ft 256 kts 182°
2026-04-20 01:06 30.00833 -110.99888 13894 ft 257 kts 181°
2026-04-20 01:06 29.99048 -110.99780 13457 ft 256 kts 179°
2026-04-20 01:06 29.97273 -110.99630 13029 ft 255 kts 179°
2026-04-20 01:07 29.95496 -110.99493 12600 ft 254 kts 179°
2026-04-20 01:07 29.93756 -110.99381 12182 ft 253 kts 179°
2026-04-20 01:07 29.92003 -110.99267 11760 ft 252 kts 179°
2026-04-20 01:07 29.90252 -110.99141 11325 ft 251 kts 178°
2026-04-20 01:08 29.88517 -110.99013 10908 ft 249 kts 178°
2026-04-20 01:08 29.86784 -110.98893 10475 ft 249 kts 178°
2026-04-20 01:08 29.85056 -110.98778 10049 ft 248 kts 178°
2026-04-20 01:08 29.83342 -110.98633 9634 ft 247 kts 176°
2026-04-20 01:09 29.81631 -110.98457 9225 ft 246 kts 175°
2026-04-20 01:09 29.79930 -110.98273 9019 ft 244 kts 175°
2026-04-20 01:09 29.78259 -110.98105 9004 ft 245 kts 176°
2026-04-20 01:09 29.76558 -110.97942 9002 ft 245 kts 176°
2026-04-20 01:10 29.74860 -110.97773 9001 ft 245 kts 176°
2026-04-20 01:10 29.71468 -110.97432 8999 ft 244 kts 176°
2026-04-20 01:10 29.69768 -110.97259 9000 ft 245 kts 176°
2026-04-20 01:11 29.68063 -110.97091 8999 ft 246 kts 176°
2026-04-20 01:11 29.66366 -110.96924 8882 ft 243 kts 176°
2026-04-20 01:11 29.64699 -110.96755 8543 ft 244 kts 175°
2026-04-20 01:11 29.63004 -110.96581 8212 ft 244 kts 175°
2026-04-20 01:12 29.61314 -110.96417 7896 ft 243 kts 175°
2026-04-20 01:12 29.59632 -110.96253 7582 ft 242 kts 175°
2026-04-20 01:12 29.57954 -110.96082 7270 ft 241 kts 175°
2026-04-20 01:12 29.56283 -110.95914 6959 ft 239 kts 175°
2026-04-20 01:13 29.54652 -110.95751 6656 ft 238 kts 175°
2026-04-20 01:13 29.53005 -110.95589 6357 ft 236 kts 175°
2026-04-20 01:13 29.51370 -110.95425 6067 ft 234 kts 174°
2026-04-20 01:13 29.49754 -110.95267 5788 ft 232 kts 175°
2026-04-20 01:14 29.48156 -110.95112 5513 ft 229 kts 175°
2026-04-20 01:14 29.46580 -110.94953 5239 ft 226 kts 174°
2026-04-20 01:14 29.45020 -110.94794 4967 ft 223 kts 175°
2026-04-20 01:14 29.43482 -110.94641 4696 ft 220 kts 175°
2026-04-20 01:15 29.41965 -110.94493 4426 ft 217 kts 175°
2026-04-20 01:15 29.40471 -110.94347 4157 ft 214 kts 175°
2026-04-20 01:15 29.39016 -110.94201 3989 ft 211 kts 175°
2026-04-20 01:15 29.37548 -110.94052 3991 ft 212 kts 175°
2026-04-20 01:16 29.36072 -110.93908 3994 ft 212 kts 175°
2026-04-20 01:16 29.34603 -110.93764 3995 ft 212 kts 175°
2026-04-20 01:16 29.33129 -110.93614 3996 ft 212 kts 175°
2026-04-20 01:16 29.32154 -110.93517 3996 ft 212 kts 175°
2026-04-20 01:17 29.30192 -110.93325 3997 ft 212 kts 175°
2026-04-20 01:17 29.29213 -110.93227 3997 ft 212 kts 175°
2026-04-20 01:17 29.27739 -110.93080 3998 ft 212 kts 175°
2026-04-20 01:17 29.26270 -110.92930 3970 ft 209 kts 173°
2026-04-20 01:18 29.24932 -110.92449 3892 ft 195 kts 152°
2026-04-20 01:18 29.23812 -110.91663 3813 ft 183 kts 147°
2026-04-20 01:18 29.22777 -110.90901 3749 ft 169 kts 148°
2026-04-20 01:18 29.21799 -110.90221 3573 ft 165 kts 149°
2026-04-20 01:19 29.20813 -110.89560 3341 ft 163 kts 151°
2026-04-20 01:19 29.19757 -110.89106 3053 ft 162 kts 166°
2026-04-20 01:19 29.18654 -110.88820 2997 ft 163 kts 176°
2026-04-20 01:19 29.17616 -110.89252 3021 ft 163 kts 222°
2026-04-20 01:20 29.17105 -110.90354 3033 ft 158 kts 250°
2026-04-20 01:20 29.16640 -110.91491 3001 ft 157 kts 240°
2026-04-20 01:20 29.16082 -110.92566 2855 ft 156 kts 239°
2026-04-20 01:20 29.15539 -110.93641 2632 ft 156 kts 240°
2026-04-20 01:21 29.14998 -110.94710 2343 ft 154 kts 239°
2026-04-20 01:21 29.14434 -110.95753 2108 ft 154 kts 238°
2026-04-20 01:21 29.13877 -110.96789 1971 ft 153 kts 238°
2026-04-20 01:21 29.13304 -110.97825 1889 ft 154 kts 237°
2026-04-20 01:22 29.12731 -110.98862 1755 ft 154 kts 238°
2026-04-20 01:22 29.12172 -110.99907 1532 ft 152 kts 238°
2026-04-20 01:22 29.11630 -111.00948 1291 ft 153 kts 239°
2026-04-20 01:22 29.11077 -111.01981 1120 ft 153 kts 238°
2026-04-20 01:23 29.10521 -111.03015 925 ft 152 kts 238°
2026-04-20 01:23 29.09974 -111.04045 701 ft 150 kts 239°
2026-04-20 01:23 29.09460 -111.05008 641 ft 126 kts 239°
2026-04-20 01:23 29.09166 -111.05563 641 ft 35 kts 238°
2026-04-20 01:24 29.09153 -111.05586 641 ft 2 kts 238°
2026-04-20 01:24 29.09143 -111.05605 641 ft 4 kts 238°
2026-04-20 01:24 29.09121 -111.05647 641 ft 11 kts 236°
2026-04-20 01:24 29.09083 -111.05617 641 ft 10 kts 90°
2026-04-20 01:25 29.09084 -111.05528 641 ft 12 kts 88°
2026-04-20 01:25 29.09088 -111.05419 641 ft 13 kts 86°
2026-04-20 01:25 29.09101 -111.05334 641 ft 11 kts 63°
2026-04-20 01:25 29.09113 -111.05292 641 ft 5 kts 109°
2026-04-20 01:26 29.09083 -111.05267 641 ft 4 kts 147°
2026-04-20 01:26 29.09061 -111.05251 641 ft 3 kts 146°
2026-04-20 01:26 29.09051 -111.05244 641 ft 0 kts 147°